�N����,����,�~����,�C��,���x,�C��,����,���ϕ���,�ő�u�ԕ���,�ő厞����,���˗�,�I�_���x,�n�����x,�ő啗���N��,DTYPE
"23/06/11","00:10",0.0,22.3,85.8,1006.0,181.2,1.0,2.2,185.7,0.00,19.8,20.8,"00:08:32",1
"23/06/11","00:20",0.0,22.4,85.8,1006.0,155.5,1.1,2.6,145.2,0.00,19.9,20.6,"00:10:24",1
"23/06/11","00:30",0.0,22.3,85.7,1006.0,168.3,1.1,2.2,206.7,0.00,19.8,20.7,"00:24:32",1
"23/06/11","00:40",0.0,22.3,85.6,1005.5,165.2,1.1,2.8,131.1,0.00,19.8,20.7,"00:38:48",1
"23/06/11","00:50",0.0,22.3,85.4,1006.0,168.5,1.0,2.2,149.1,0.00,19.8,20.7,"00:43:28",1
"23/06/11","01:00",0.0,22.3,85.4,1006.2,166.7,1.1,2.4,205.8,0.00,19.8,20.7,"00:55:12",1
"23/06/11","01:10",0.0,22.2,85.6,1005.7,155.9,1.1,2.0,137.1,0.00,19.7,20.7,"01:03:52",1
"23/06/11","01:20",0.0,22.2,85.7,1005.7,158.9,1.1,2.0,167.0,0.00,19.7,20.6,"01:12:32",1
"23/06/11","01:30",0.0,22.2,85.7,1005.2,173.3,0.6,2.1,132.7,0.00,19.7,20.6,"01:25:12",1
"23/06/11","01:40",0.0,22.0,85.8,1005.5,121.1,0.2,1.0,85.2,0.00,19.6,20.5,"01:37:44",1
"23/06/11","01:50",0.0,22.0,85.9,1005.2,342.4,0.3,0.8,308.9,0.00,19.6,20.5,"01:46:40",1
"23/06/11","02:00",0.0,21.9,86.1,1005.7,28.9,0.3,0.9,93.0,0.00,19.5,20.3,"01:51:36",1
"23/06/11","02:10",0.2,21.8,86.6,1005.7,242.8,0.1,1.1,129.8,0.00,19.5,20.6,"02:00:02",1
"23/06/11","02:20",0.0,21.6,87.0,1005.5,131.2,0.5,1.4,129.1,0.00,19.4,20.6,"02:19:36",1
"23/06/11","02:30",0.2,21.4,87.5,1005.5,160.2,0.5,1.2,127.7,0.00,19.3,20.5,"02:25:44",1
"23/06/11","02:40",0.2,21.3,87.9,1005.7,261.8,0.6,1.3,246.6,0.00,19.3,20.6,"02:34:48",1
"23/06/11","02:50",0.2,21.3,88.4,1006.0,335.9,0.6,1.3,321.3,0.00,19.3,20.8,"02:48:16",1
"23/06/11","03:00",0.2,21.3,89.0,1005.7,326.4,1.1,1.3,338.4,0.00,19.5,20.4,"02:50:32",1
"23/06/11","03:10",0.4,21.2,89.6,1005.7,337.9,0.8,1.3,336.9,0.00,19.5,20.6,"03:06:16",1
"23/06/11","03:20",0.2,21.0,90.1,1006.2,336.4,0.7,1.2,347.9,0.00,19.4,20.5,"03:14:08",1
"23/06/11","03:30",0.4,20.8,90.5,1006.0,324.3,0.8,1.2,343.5,0.00,19.2,20.5,"03:20:48",1
"23/06/11","03:40",0.6,20.7,91.0,1006.2,306.5,0.8,1.1,320.5,0.00,19.2,20.4,"03:30:40",1
"23/06/11","03:50",0.2,20.6,91.4,1006.2,288.3,0.6,0.9,307.0,0.00,19.2,20.5,"03:47:36",1
"23/06/11","04:00",0.4,20.7,91.7,1006.0,322.4,0.8,1.2,321.2,0.00,19.3,20.4,"03:51:12",1
"23/06/11","04:10",0.4,20.7,92.0,1005.7,313.0,1.0,1.3,340.6,0.00,19.4,20.5,"04:00:48",1
"23/06/11","04:20",0.2,20.6,92.3,1005.5,330.2,0.5,1.0,327.9,0.00,19.3,20.4,"04:17:28",1
"23/06/11","04:30",0.2,20.4,92.6,1005.7,296.5,0.5,0.8,328.4,0.00,19.2,20.5,"04:22:32",1
"23/06/11","04:40",0.2,20.4,92.8,1005.2,308.0,0.6,0.9,318.7,0.00,19.2,20.5,"04:33:52",1
"23/06/11","04:50",0.2,20.3,93.0,1005.5,299.0,0.6,0.9,328.8,0.00,19.2,20.6,"04:44:08",1
"23/06/11","05:00",0.0,20.2,93.2,1005.0,327.3,0.6,0.9,334.6,0.00,19.1,20.4,"04:50:24",1
"23/06/11","05:10",0.2,20.1,93.4,1005.2,320.0,0.7,1.1,343.1,0.00,19.0,20.2,"05:03:04",1
"23/06/11","05:20",0.0,20.0,93.5,1004.8,288.7,0.2,0.5,296.1,0.00,19.0,20.4,"05:10:24",1
"23/06/11","05:30",0.0,20.0,93.7,1004.5,306.7,0.5,0.8,335.3,0.00,19.0,20.3,"05:29:44",1
"23/06/11","05:40",0.0,20.1,93.9,1004.8,348.2,0.7,1.1,344.3,0.00,19.1,20.4,"05:32:56",1
"23/06/11","05:50",0.0,20.1,94.1,1004.5,345.4,0.8,1.7,342.7,0.00,19.2,20.3,"05:43:20",1
"23/06/11","06:00",0.0,20.0,94.2,1004.8,333.3,0.7,1.3,339.9,0.00,19.1,20.3,"05:54:40",1
"23/06/11","06:10",0.0,20.0,94.3,1005.2,286.0,0.5,0.8,335.9,0.00,19.1,20.3,"06:00:08",1
"23/06/11","06:20",0.2,19.9,94.5,1005.2,310.5,0.5,0.6,317.3,0.00,19.0,20.3,"06:15:20",1
"23/06/11","06:30",0.0,20.1,94.7,1005.0,333.4,0.8,1.4,342.1,0.00,19.3,20.3,"06:29:20",1
"23/06/11","06:40",0.2,20.1,94.8,1005.0,334.5,0.8,1.7,343.1,0.00,19.3,20.5,"06:36:56",1
"23/06/11","06:50",0.2,20.2,94.9,1005.2,306.3,0.8,1.6,321.7,0.00,19.4,20.3,"06:47:28",1
"23/06/11","07:00",0.2,20.2,95.0,1004.8,284.7,0.8,1.2,326.3,0.00,19.4,20.4,"06:56:40",1
"23/06/11","07:10",0.0,20.2,95.1,1004.8,286.2,0.7,1.2,299.3,0.01,19.4,20.2,"07:03:12",1
"23/06/11","07:20",0.2,20.3,95.2,1005.2,277.3,0.7,1.1,303.2,0.01,19.5,20.3,"07:10:08",1
"23/06/11","07:30",0.2,20.3,95.3,1005.2,317.0,0.8,1.4,312.4,0.02,19.6,20.2,"07:21:28",1
"23/06/11","07:40",0.2,20.3,95.4,1005.0,319.8,1.0,1.4,315.4,0.02,19.6,20.3,"07:30:32",1
"23/06/11","07:50",0.2,20.5,95.5,1005.2,291.2,0.6,1.1,255.4,0.03,19.8,20.2,"07:49:04",1
"23/06/11","08:00",0.0,20.5,95.5,1005.2,270.8,0.7,1.2,251.8,0.03,19.8,20.2,"07:50:32",1
"23/06/11","08:10",0.2,20.5,95.6,1005.2,297.7,0.7,1.4,254.5,0.03,19.8,20.2,"08:00:16",1
"23/06/11","08:20",0.2,20.7,95.6,1005.2,320.7,0.7,1.2,347.5,0.04,20.0,20.3,"08:13:28",1
"23/06/11","08:30",0.2,20.8,95.7,1005.0,301.4,0.6,0.9,336.5,0.04,20.1,20.4,"08:20:08",1
"23/06/11","08:40",0.2,20.9,95.8,1005.5,298.2,0.6,1.0,264.8,0.05,20.2,20.3,"08:38:16",1
"23/06/11","08:50",0.0,20.9,95.8,1005.0,297.3,0.5,0.9,319.5,0.05,20.2,20.2,"08:44:40",1
"23/06/11","09:00",0.2,20.9,95.8,1005.0,277.1,0.5,1.0,261.2,0.05,20.2,20.2,"08:51:44",1
"23/06/11","09:10",0.0,21.0,95.8,1005.0,280.5,0.3,0.6,310.9,0.06,20.3,20.3,"09:01:04",1
"23/06/11","09:20",0.0,21.1,95.9,1004.8,275.3,0.5,1.1,293.3,0.06,20.5,20.4,"09:17:04",1
"23/06/11","09:30",0.0,21.2,95.9,1004.8,280.2,0.5,0.8,261.6,0.05,20.6,20.2,"09:26:08",1
"23/06/11","09:40",0.0,21.2,96.0,1004.8,295.7,0.7,1.2,316.8,0.06,20.6,20.2,"09:30:32",1
"23/06/11","09:50",0.2,21.3,96.0,1005.0,271.5,0.7,1.4,264.2,0.07,20.7,20.3,"09:42:56",1
"23/06/11","10:00",0.0,21.3,96.0,1005.2,257.8,0.8,1.3,244.5,0.06,20.7,20.2,"09:56:56",1
"23/06/11","10:10",0.2,21.2,96.0,1005.2,231.4,0.8,1.6,194.2,0.06,20.6,20.2,"10:06:56",1
"23/06/11","10:20",0.0,21.3,96.0,1005.5,220.2,0.7,1.7,231.0,0.05,20.7,20.4,"10:17:04",1
"23/06/11","10:30",0.0,21.4,96.1,1005.0,255.5,0.7,1.2,272.8,0.06,20.8,20.5,"10:24:00",1
"23/06/11","10:40",0.2,21.5,96.0,1005.5,246.8,0.6,1.1,256.5,0.08,20.9,20.2,"10:36:56",1
"23/06/11","10:50",0.2,21.5,96.1,1005.2,320.4,0.8,2.2,342.8,0.07,20.9,20.3,"10:40:02",1
"23/06/11","11:00",0.0,21.5,96.1,1005.2,339.4,1.1,1.9,347.3,0.04,20.9,20.3,"10:50:24",1
"23/06/11","11:10",0.4,21.5,96.2,1004.8,331.3,0.7,1.4,340.9,0.06,20.9,20.4,"11:01:20",1
"23/06/11","11:20",0.2,21.5,96.2,1004.8,39.5,0.3,1.1,12.0,0.06,20.9,20.5,"11:16:32",1
"23/06/11","11:30",0.0,21.7,96.1,1004.3,343.7,0.2,1.2,328.1,0.11,21.1,20.4,"11:21:20",1
"23/06/11","11:40",0.0,21.9,96.1,1004.3,175.6,0.3,2.4,105.1,0.09,21.3,20.2,"11:37:04",1
"23/06/11","11:50",0.2,21.8,95.7,1004.5,186.7,0.5,1.2,178.4,0.07,21.1,20.3,"11:49:28",1
"23/06/11","12:00",0.0,22.1,96.1,1004.5,139.0,0.5,1.3,123.0,0.14,21.5,20.6,"11:50:08",1
"23/06/11","12:10",0.0,22.2,96.0,1004.8,227.4,1.1,2.2,237.6,0.20,21.6,20.5,"12:06:16",1
"23/06/11","12:20",0.2,22.4,95.9,1004.3,262.9,0.7,1.6,197.1,0.19,21.8,20.4,"12:10:32",1
"23/06/11","12:30",0.0,22.5,96.0,1004.3,309.4,0.7,1.4,334.5,0.18,21.9,20.4,"12:28:00",1
"23/06/11","12:40",0.0,22.5,95.9,1004.5,279.9,1.0,1.8,271.8,0.25,21.9,20.4,"12:33:44",1
"23/06/11","12:50",0.0,22.3,95.9,1004.5,316.2,1.6,2.6,325.0,0.14,21.7,20.4,"12:46:16",1
"23/06/11","13:00",0.0,22.2,95.7,1004.5,306.0,1.5,2.6,306.7,0.13,21.5,20.3,"12:58:48",1
"23/06/11","13:10",0.0,22.4,95.6,1005.0,337.3,1.1,2.0,341.9,0.11,21.7,20.4,"13:01:12",1
"23/06/11","13:20",0.0,22.9,95.6,1004.1,343.6,0.5,1.0,342.0,0.13,22.2,20.4,"13:15:20",1
"23/06/11","13:30",0.0,23.0,95.4,1004.3,314.6,0.3,1.0,138.8,0.13,22.3,20.6,"13:24:48",1
"23/06/11","13:40",0.0,22.7,95.1,1005.0,323.3,0.8,1.8,315.3,0.09,21.9,20.5,"13:39:28",1
"23/06/11","13:50",0.0,22.3,95.4,1005.0,325.1,1.6,2.4,332.2,0.05,21.6,20.7,"13:47:04",1
"23/06/11","14:00",0.0,22.6,95.1,1005.0,329.4,1.3,2.0,338.9,0.08,21.8,20.6,"13:55:12",1
"23/06/11","14:10",0.0,23.0,94.9,1004.3,344.4,0.6,1.2,350.0,0.12,22.2,20.7,"14:04:08",1
"23/06/11","14:20",0.0,23.2,94.8,1004.1,36.2,0.3,0.9,318.5,0.19,22.4,20.6,"14:11:12",1
"23/06/11","14:30",0.0,23.4,94.3,1003.8,358.2,0.5,1.2,347.5,0.20,22.5,20.7,"14:28:56",1
"23/06/11","14:40",0.0,23.4,93.5,1003.1,358.9,0.6,1.6,348.2,0.24,22.3,20.7,"14:39:12",1
"23/06/11","14:50",0.0,23.4,92.6,1003.1,292.4,0.8,1.8,3.9,0.12,22.2,20.9,"14:41:04",1
"23/06/11","15:00",0.0,23.5,92.2,1003.4,302.1,0.6,2.0,194.2,0.08,22.2,20.6,"14:56:32",1
"23/06/11","15:10",0.0,23.5,91.3,1003.4,66.7,0.5,1.7,90.9,0.08,22.0,20.7,"15:06:08",1
"23/06/11","15:20",0.0,23.7,90.7,1003.1,338.9,1.0,2.2,313.4,0.08,22.1,20.6,"15:15:04",1
"23/06/11","15:30",0.0,23.8,89.5,1003.1,341.3,0.7,1.9,347.3,0.14,22.0,20.7,"15:29:04",1
"23/06/11","15:40",0.0,24.5,88.3,1002.9,45.2,0.6,1.9,335.3,0.15,22.5,20.9,"15:31:20",1
"23/06/11","15:50",0.0,24.8,86.3,1003.1,148.6,0.6,1.2,108.6,0.13,22.4,20.8,"15:40:40",1
"23/06/11","16:00",0.0,24.5,84.3,1002.9,331.1,0.6,1.3,19.5,0.06,21.7,20.7,"15:55:52",1
"23/06/11","16:10",0.0,24.4,82.7,1002.6,268.8,0.8,2.4,328.7,0.03,21.3,20.6,"16:03:12",1
"23/06/11","16:20",0.0,24.3,82.6,1002.9,174.5,0.6,1.4,156.2,0.09,21.2,20.8,"16:10:32",1
"23/06/11","16:30",0.0,25.5,81.3,1002.6,193.0,1.0,2.4,105.1,0.26,22.1,20.6,"16:28:48",1
"23/06/11","16:40",0.0,25.4,78.3,1002.6,247.7,0.6,1.9,223.7,0.10,21.4,20.9,"16:38:40",1
"23/06/11","16:50",0.0,25.3,77.7,1002.9,171.2,0.7,1.6,133.2,0.08,21.2,20.7,"16:49:36",1
"23/06/11","17:00",0.0,24.9,77.7,1002.4,167.5,0.6,2.1,156.1,0.08,20.8,20.7,"16:55:28",1
"23/06/11","17:10",0.0,24.9,77.2,1002.4,183.7,1.0,1.8,153.9,0.12,20.7,20.8,"17:03:52",1
"23/06/11","17:20",0.0,25.4,76.3,1002.9,190.4,0.8,2.6,228.2,0.12,21.0,20.8,"17:14:56",1
"23/06/11","17:30",0.0,25.1,75.5,1002.6,159.1,0.8,1.8,170.8,0.06,20.5,21.0,"17:28:08",1
"23/06/11","17:40",0.0,24.8,76.1,1002.9,161.7,0.7,1.8,157.7,0.08,20.3,20.8,"17:30:40",1
"23/06/11","17:50",0.0,24.9,75.6,1002.6,195.3,0.6,1.3,139.4,0.06,20.3,20.8,"17:44:24",1
"23/06/11","18:00",0.0,25.0,75.3,1002.9,228.7,0.5,1.2,41.2,0.05,20.4,20.9,"17:57:52",1
"23/06/11","18:10",0.0,25.0,76.1,1002.6,338.0,0.5,1.0,357.7,0.04,20.5,20.9,"18:00:08",1
"23/06/11","18:20",0.0,25.1,77.0,1002.9,352.0,0.3,1.4,334.3,0.05,20.8,21.0,"18:10:40",1
"23/06/11","18:30",0.0,24.8,78.6,1002.9,273.7,0.6,1.4,46.6,0.04,20.9,21.0,"18:28:00",1
"23/06/11","18:40",0.0,24.6,79.5,1002.9,15.9,0.3,1.4,359.9,0.02,20.9,21.0,"18:38:00",1
"23/06/11","18:50",0.0,24.3,80.3,1003.1,342.1,0.6,2.0,344.4,0.00,20.7,21.0,"18:43:52",1
"23/06/11","19:00",0.0,24.0,80.9,1003.4,12.5,0.7,1.9,31.0,0.00,20.6,21.0,"18:52:32",1
"23/06/11","19:10",0.0,23.9,81.7,1003.1,0.5,0.5,1.6,353.7,0.00,20.6,20.9,"19:02:16",1
"23/06/11","19:20",0.0,23.6,82.3,1003.6,342.8,0.6,1.4,13.5,0.00,20.4,20.9,"19:13:28",1
"23/06/11","19:30",0.0,23.7,83.5,1003.4,322.6,1.3,1.9,326.6,0.00,20.8,20.9,"19:22:24",1
"23/06/11","19:40",0.0,23.4,84.8,1003.6,346.3,1.2,2.1,354.0,0.00,20.7,20.9,"19:30:16",1
"23/06/11","19:50",0.0,23.2,85.8,1003.6,338.8,0.8,1.3,339.7,0.00,20.7,21.1,"19:42:00",1
"23/06/11","20:00",0.0,23.0,86.4,1003.6,335.4,0.6,1.6,341.6,0.00,20.6,21.2,"19:55:20",1
"23/06/11","20:10",0.0,22.7,86.8,1003.6,121.1,0.2,1.2,139.3,0.00,20.4,21.0,"20:04:56",1
"23/06/11","20:20",0.0,22.7,87.4,1003.8,288.1,0.8,1.9,299.7,0.00,20.5,20.9,"20:19:12",1
"23/06/11","20:30",0.0,22.6,87.7,1003.8,282.6,0.8,1.6,264.2,0.00,20.5,21.1,"20:27:52",1
"23/06/11","20:40",0.0,22.4,88.1,1003.8,301.1,0.5,1.3,269.5,0.00,20.4,21.1,"20:33:28",1
"23/06/11","20:50",0.0,22.3,88.6,1004.1,299.9,0.8,1.3,342.9,0.00,20.4,21.1,"20:49:44",1
"23/06/11","21:00",0.0,22.2,89.0,1004.1,316.7,1.5,2.1,325.3,0.00,20.3,21.0,"20:55:20",1
"23/06/11","21:10",0.0,22.1,89.4,1003.6,307.2,0.8,1.6,331.3,0.00,20.3,20.8,"21:00:32",1
"23/06/11","21:20",0.0,22.0,89.7,1003.8,308.0,1.2,2.2,332.5,0.00,20.3,20.9,"21:14:24",1
"23/06/11","21:30",0.0,21.8,90.0,1003.6,293.9,0.7,1.2,300.8,0.00,20.1,21.0,"21:25:36",1
"23/06/11","21:40",0.0,21.9,90.3,1003.8,310.9,1.1,2.0,325.5,0.00,20.3,20.8,"21:38:00",1
"23/06/11","21:50",0.0,21.7,90.5,1003.8,302.1,0.7,1.6,327.3,0.00,20.1,21.0,"21:40:08",1
"23/06/11","22:00",0.0,21.5,90.8,1003.4,297.8,0.5,1.1,296.4,0.00,20.0,20.8,"21:59:44",1
"23/06/11","22:10",0.0,21.4,91.0,1004.1,302.5,0.8,1.4,301.0,0.00,19.9,20.9,"22:00:32",1
"23/06/11","22:20",0.0,21.3,91.2,1004.3,327.1,0.5,1.0,329.7,0.00,19.8,20.9,"22:10:02",1
"23/06/11","22:30",0.0,21.5,91.7,1004.1,333.8,1.3,1.9,327.5,0.00,20.1,20.8,"22:28:56",1
"23/06/11","22:40",0.0,21.3,91.9,1004.3,317.9,1.6,2.6,329.4,0.00,20.0,20.7,"22:32:08",1
"23/06/11","22:50",0.0,21.3,92.1,1004.3,329.7,0.7,1.2,317.2,0.00,20.0,20.6,"22:45:04",1
"23/06/11","23:00",0.0,21.2,92.4,1004.3,301.7,1.0,1.3,338.5,0.00,20.0,20.7,"22:51:28",1
"23/06/11","23:10",0.0,21.2,92.6,1004.3,299.9,1.1,1.6,285.2,0.00,20.0,20.9,"23:02:48",1
"23/06/11","23:20",0.0,21.2,92.7,1004.3,290.9,1.2,1.9,322.0,0.00,20.0,20.8,"23:13:44",1
"23/06/11","23:30",0.0,21.3,92.8,1004.1,301.3,1.0,1.4,266.2,0.00,20.1,20.7,"23:28:56",1
"23/06/11","23:40",0.0,21.2,92.9,1004.3,309.1,1.0,1.7,264.0,0.00,20.0,20.7,"23:36:56",1
"23/06/11","23:50",0.0,21.3,93.0,1004.3,314.9,1.0,1.6,338.4,0.00,20.2,20.7,"23:47:12",1
"23/06/11","24:00",0.0,21.2,93.1,1004.5,329.3,1.0,1.3,314.3,0.00,20.1,20.8,"23:50:32",1
